Regional Weather Roundup
Issued by NWS

Home | Current Version | Previous Version | Text Only | Print | Product List | Glossary Off
Versions: 1 2 3 4 5 6 7 8 9 10 11 12 13 14 15 16 17 18 19 20 21 22 23 24 25 26 27 28 29 30 31 32 33 34 35 36 37 38 39 40 41 42 43 44 45 46 47 48 49 50

000
ASUS45 KTFX 300010
RWRMT
MONTANA REGIONAL WEATHER ROUNDUP
NATIONAL WEATHER SERVICE GREAT FALLS MT
600 PM MDT MON JUN 29 2015

NOTE: "FAIR" INDICATES FEW OR NO CLOUDS BELOW 12000 FEET WITH NO
SIGNIFICANT WEATHER AND/OR OBSTRUCTIONS TO VISIBILITY.

MTZ001>007-043-300100-
WEST OF THE DIVIDE

CITY           SKY/WX    TMP DP  RH WIND       PRES   REMARKS
KALISPELL      PTCLDY    88  53  30 S6        29.96F
MISSOULA       MOSUNNY   94  47  20 W5        29.95F HX  90
BUTTE          PTSUNNY   84  48  28 SW21G30   30.19R
MULLAN PASS    PTSUNNY   71  54  54 NW5       30.22S
DEER LODGE       N/A     91  57  31 S8        30.10F HX  90
EUREKA           N/A     75  63  64 NE10      29.99S
HAMILTON         N/A     90  55  31 N9        29.95F
PLAINS           N/A     94  55  26 S2        29.95F HX  92
RONAN            N/A     93  51  23 W2        30.02F HX  90
$$

MTZ008-052>055-300100-
SOUTHWEST MONTANA

CITY           SKY/WX    TMP DP  RH WIND       PRES   REMARKS
BOZEMAN        CLOUDY    75  54  47 SW21G40   30.17R
DILLON         CLOUDY    76  53  44 SE25G33   30.14F
W YELLOWSTONE  CLOUDY    75  46  35 NW8G20    30.27R
THREE FORKS      N/A     78  61  55 S12       30.13R
TWIN BRIDGES     N/A     77  50  38 E20       30.13F
$$

MTZ009-010-012-014-046-048-049-054-300100-
EAST SLOPES AND CENTRAL MONTANA

CITY           SKY/WX    TMP DP  RH WIND       PRES   REMARKS
CUT BANK       CLOUDY    85  52  32 S12       29.99F
GREAT FALLS    CLOUDY    94  49  21 NE12      30.00F HX  90
MALMSTROM AFB  CLOUDY    92  49  23 N13       30.00S
HELENA         CLOUDY    88  52  29 SE12      30.02R
CONRAD           N/A     84  67  56 NE2       30.02F
$$

MTZ011-013-016-021-045-047-050-051-300100-
NORTH CENTRAL MONTANA

CITY           SKY/WX    TMP DP  RH WIND       PRES   REMARKS
HAVRE          CLOUDY    92  47  21 NE5       29.95S
LEWISTOWN      PTSUNNY   87  51  28 SE6       30.03F
CHINOOK          N/A     90  48  24 NE9       29.95S
FORT BENTON      N/A     95  52  23 NW6       29.95F HX  92
$$

MTZ017>020-022>027-061-062-300100-
NORTHEAST MONTANA

CITY           SKY/WX    TMP DP  RH WIND       PRES   REMARKS
GLASGOW        PTSUNNY   91  49  23 NE15      29.93F
JORDAN           N/A     95  43  16 E7        29.95F HX  91
SIDNEY         SUNNY     93  52  24 N13       29.91S HX  90
WOLF POINT     MOSUNNY   96  53  23 N17       29.92F HX  93
MALTA            N/A     95  50  21 NE3       29.92S HX  92
PLENTYWOOD       N/A     84  54  34 N17       29.97R
POPLAR           N/A     90  57  33 N10       29.93S
SCOBEY           N/A     85  52  32 N13       29.99R
$$

MTZ028>42-056>058-300100-
SOUTHCENTRAL AND SOUTHEAST MONTANA

CITY           SKY/WX    TMP DP  RH WIND       PRES   REMARKS
BAKER          SUNNY     92  51  24 N10       29.97F
BILLINGS       MOSUNNY   97  37  12 SE9       30.01F HX  92
LIVINGSTON     PTSUNNY   82  50  32 W26G37    30.10R THUNDER
MILES CITY     MOSUNNY   97  41  14 NW8       29.94F HX  92
BIG TIMBER       N/A     90  52  27 E10       30.05S
EKALAKA          N/A     89  52  28 W6        30.00F
FORSYTH          N/A     97  45  16 E3        29.94F HX  93
LAUREL           N/A     95  48  20 E5        29.99F HX  91
ROUNDUP          N/A     94  46  19 E2        29.91F HX  90
$$

REGIONAL REPORTS...DAKOTAS

CITY           SKY/WX    TMP DP  RH WIND       PRES   REMARKS
WILLISTON      MOSUNNY   92  58  31 NE18      29.92R HX  91
MINOT          SUNNY     86  56  35 NW8       29.89S
DICKINSON      SUNNY     90  61  37 W7        29.90F HX  90
BEACH          FAIR      88  59  37 N7        29.95F
CROSBY         FAIR      82  63  51 N10       29.95S
BISMARCK       SUNNY     90  57  32 W7        29.90F
GRAND FORKS    CLOUDY    73  63  70 NW10      29.88R
FARGO          SUNNY     75  64  68 NW13      29.86S
BUFFALO SD       N/A     92  56  29 W8        29.93F HX  90
RAPID CITY     SUNNY     85  61  44 S5        30.05S
$$

REGIONAL REPORTS...WYOMING/IDAHO/WASHINGTON

CITY           SKY/WX    TMP DP  RH WIND       PRES   REMARKS
GILLETTE       MOSUNNY   88  52  29 N6        30.10F
SHERIDAN       SUNNY     90  53  28 S5        30.06F
BUFFALO WY     MOSUNNY   87  49  26 NW3       30.16F
CODY           SUNNY     91  43  18 SE10      30.10F
YELLOWSTONE LA   N/A     78  40  25 VRB3      30.37S
IDAHO FALLS    PTSUNNY   97  44  16 S7        30.03F HX  93
SALMON         CLOUDY    84  57  39 S9        29.99F
BOISE          MOSUNNY  101  52  19 NW12      29.88F HX  98
SPOKANE        MOSUNNY   93  53  25 S15       29.93F HX  90
$$

REGIONAL REPORTS...ALBERTA

CITY           SKY/WX    TMP DP  RH WIND       PRES   REMARKS
EDMONTON       LGT RAIN  64  55  72 S12G21    30.05F
CALGARY        LGT RAIN  68  57  68 E8        30.07F
LETHBRIDGE     PTSUNNY   82  55  39 NE13G20   29.99F
MEDICINE HAT   CLOUDY    84  50  30 NE15G26   29.96F
WATERTON GATE    N/A    N/A N/A N/A N8          N/A
CARDSTON         N/A     79  63  57 N8          N/A
ONEFOUR          N/A     91  45  19 S8          N/A
$$

REGIONAL REPORTS...SASKATCHEWAN

CITY           SKY/WX    TMP DP  RH WIND       PRES   REMARKS
SWIFT CURRENT  HAZE      75  45  33 NE13      30.07F VSB 1
REGINA           N/A     72  54  53 N13       30.02F SMOKE
SASKATOON      SMOKE     73  50  43 NE7       30.05F VSB 1
CYPRESS HILLS    N/A     73  48  40 E9G17       N/A
VAL MARIE        N/A     82  50  32 NE16        N/A
$$


USA.gov is the U.S. government's official web portal to all federal, state and local government web resources and services.